TIANLIAN 2-02

Last updated on Thu Jul 03 2025 00:02:48 GMT+0000 (Coordinated Universal Time)

1 50005U 21124A 25183.52917608 -.00000007 00000+0 00000+0 0 9993 2 50005 0.1089 256.9486 0000858 320.0980 65.2154 1.00272668 13114
UTC large
Height (km)
Speed (km/s)
/
Latitude / Longitude
Inclination (degrees)
Orbital Period (minutes)
Azimuth
Elevation
Range (km)
Doppler Factor

Next 0 passes for location: London (51.5072 / 0.1276)

Sorry there are no passes over London.